Terminal Aerodrome Forecast
Issued by NWS Blacksburg, VA

Home | Current Version | Previous Version | Text Only | Print | Product List | Glossary On
Versions: 1 2 3 4 5 6 7 8 9 10 11 12 13 14 15 16 17 18 19 20 21 22 23 24 25 26 27 28 29 30 31 32 33 34 35 36 37 38 39 40 41 42 43 44 45 46 47 48 49 50
000
FTUS41 KRNK 042333
TAFLYH
TAF
KLYH 042333Z 0500/0524 25003KT P6SM SCT050 BKN090
     FM050500 02004KT P6SM -SHRA OVC025
     FM050900 03006KT 4SM -SHRA BR OVC012
     FM051400 02008KT 3SM -SHRA BR OVC018
     FM051900 02009KT 5SM -SHRA BR OVC009=

USA.gov is the U.S. government's official web portal to all federal, state and local government web resources and services.